Weather in Rorvik

Norway     64°51′42″N   11°13′43″E
temp.,
°C
wind,
m/s
gust,
m/s
humid.,
%
clouds,
%
prec.,
mm/h
press.,
hPa
HPBL,
m
29 november, mon
mon2901:00−4sse9983100 0.0 1006350
04:00−3sse8889100 0.7 1005425
07:00−3se8896100 2.6 1005369
10:00−3se8889100 1.8 1004387
13:00−3se81095100 3.2 1002404
16:00−2sse91092100 3.1 1000482
19:00−2sse8989100 4.0 998493
22:00−1se6678100 0.2 997382
30 november, tue
tue3001:00−1se6573100 0.3 996320
04:00−2e4473100 0.1 995324
07:00−3se5470100 0.1 995335
10:00−3se6572100 0.0 995327
13:00−3sse656971 0.0 996490
16:00−3sse6672100 0.1 996443
19:00−3sse777832 0.1 995419
22:00−3sse7881100 0.1 994429
1 december, wed
wed101:00−3sse8893100 0.5 993395
04:00−2sse888877 0.1 992405
07:00−1sse878597 0.3 991398
10:00−1sse101091100 0.8 991511
13:00+1s8978100 3.3 989804
16:00+1se6678100 2.4 989347
19:00−1se7787100 2.9 989343
22:00−1ene548195 0.1 990396
2 december, thu
thu201:00−1e348033 0.1 991398
04:00−2ese3278100 0.0 992374
07:00−3ese4486100 0.0 992287
10:00−3ese4479100 0.0 994328
13:00−2e34735 0.0 996289
16:00−1ene456621 0.0 996348
19:000ene475789 0.0 998746
22:000e7952100 0.0 9981361
3 december, fri
fri301:000e795671 0.0 9991331
04:00−1e696123 0.0 9991081
07:00−2e8116661 0.0 1000897
10:00−2ese10136746 0.0 1000715
13:00−2ese9136722 0.0 1000658
16:00−2ese10126652 0.0 1002757
19:00−3ese9136926 0.0 1003733
22:00−3ese913695 0.0 1004686